Scottsbluff, NE

8:54 PM MDT on September 20, 2017 (GMT -0600)
Heilig

Weather History for KBFF - October, 2013

Change the Weather History Date:

Tuesday, October 22, 2013

  Actual Average Record
Temperature  
Mean Temperature 54 °F 46 °F  
Max Temperature 67 °F 62 °F 84 °F (1915)
Min Temperature 40 °F 31 °F 13 °F (1895)
Degree Days  
Heating Degree Days 11 19  
Month to date heating degree days 385 328  
Since 1 July heating degree days 473 507  
Cooling Degree Days 0 0  
Month to date cooling degree days 0 0  
Year to date cooling degree days 1047 723  
Growing Degree Days 4 (Base 50)    
Moisture  
Dew Point 37 °F    
Average Humidity 59    
Maximum Humidity 86    
Minimum Humidity 32    
Precipitation  
Precipitation 0.00 in 0.04 in 1.14 in (2000)
Month to date precipitation 1.57 0.87  
Year to date precipitation 11.79 14.35  
Snow  
Snow 0.00 in 0.10 in 6.00 in (1906)
Month to date snowfall 6.2 1.6  
Since 1 July snowfall 6.2 2.1  
Snow Depth 0.00 in    
Sea Level Pressure  
Sea Level Pressure 30.07 in    
Wind  
Wind Speed 9 mph (NW)    
Max Wind Speed 24 mph    
Max Gust Speed 30 mph    
Visibility 10 miles    
Events      
T = Trace of Precipitation, MM = Missing Value Source: NWS Daily Summary

Daily Weather History Graph

Daily Weather History Graph

Search for Another Location

Airport or City:

Trip Planner

Search our weather history database for the weather conditions in past years. The results will help you decide how hot, cold, wet, or windy it might be!

Date:

Astronomy

Oct. 22, 2013 Rise Set
Actual Time 7:15 AM MDT 6:01 PM MDT
Civil Twilight 6:46 AM MDT 6:30 PM MDT
Nautical Twilight 6:14 AM MDT 7:02 PM MDT
Astronomical Twilight 5:41 AM MDT 7:34 PM MDT
Moon 8:41 PM MDT (10/22) 10:47 AM MDT (10/22)
Length of Visible Light 11h 43m
Length of Day
10h 46m
Waning Gibbous, 86% of the Moon is Illuminated
Oct 22
Waning Gibbous
Oct 26
Last Quarter
Nov 3
New
Nov 9
First Quarter
Nov 17
Full

Hourly Weather History & Observations

Time (MDT) Temp. Windchill Dew Point Humidity Pressure Visibility Wind Dir Wind Speed Gust Speed Precip Events Conditions
12:53 AM 45.0 °F 41.2 °F 37.0 °F 74% 30.06 in 10.0 mi WNW 6.9 mph - N/A   Mostly Cloudy
1:53 AM 45.0 °F 41.8 °F 37.0 °F 74% 30.06 in 10.0 mi WNW 5.8 mph - N/A   Overcast
2:53 AM 48.0 °F - 37.0 °F 66% 30.06 in 10.0 mi West 5.8 mph - N/A   Overcast
3:53 AM 48.0 °F - 37.0 °F 66% 30.04 in 10.0 mi WNW 8.1 mph - N/A   Overcast
4:53 AM 48.0 °F - 37.0 °F 66% 30.04 in 10.0 mi WNW 5.8 mph - N/A   Overcast
5:53 AM 46.9 °F - 37.9 °F 71% 30.07 in 10.0 mi NW 5.8 mph - N/A   Overcast
6:53 AM 43.0 °F 39.5 °F 37.0 °F 80% 30.10 in 10.0 mi WNW 5.8 mph - N/A   Partly Cloudy
7:53 AM 46.0 °F 41.9 °F 37.0 °F 71% 30.11 in 10.0 mi WNW 8.1 mph - N/A   Mostly Cloudy
8:53 AM 52.0 °F - 37.9 °F 59% 30.11 in 10.0 mi WNW 16.1 mph - N/A   Mostly Cloudy
9:53 AM 54.0 °F - 37.9 °F 55% 30.12 in 10.0 mi WNW 12.7 mph - N/A   Overcast
10:53 AM 59.0 °F - 39.0 °F 48% 30.10 in 10.0 mi NNW 15.0 mph 24.2 mph N/A   Partly Cloudy
11:53 AM 63.0 °F - 37.0 °F 38% 30.09 in 10.0 mi NW 23.0 mph 29.9 mph N/A   Clear
12:53 PM 63.0 °F - 37.0 °F 38% 30.07 in 10.0 mi WNW 11.5 mph 21.9 mph N/A   Scattered Clouds
1:53 PM 66.0 °F - 36.0 °F 33% 30.03 in 10.0 mi NNW 16.1 mph 25.3 mph N/A   Mostly Cloudy
2:53 PM 66.9 °F - 35.1 °F 31% 30.01 in 10.0 mi NNW 12.7 mph 26.5 mph N/A   Clear
3:53 PM 66.9 °F - 36.0 °F 32% 30.01 in 10.0 mi NNW 9.2 mph - N/A   Clear
4:53 PM 64.9 °F - 36.0 °F 34% 30.01 in 10.0 mi North 8.1 mph - N/A   Clear
5:53 PM 57.9 °F - 37.9 °F 47% 30.02 in 10.0 mi NNE 3.5 mph - N/A   Clear
6:53 PM 50.0 °F - 37.0 °F 61% 30.06 in 10.0 mi NE 8.1 mph - N/A   Clear
7:53 PM 46.9 °F - 37.9 °F 71% 30.08 in 10.0 mi ESE 4.6 mph - N/A   Clear
8:53 PM 41.0 °F - 36.0 °F 82% 30.10 in 10.0 mi Calm Calm - N/A   Clear
9:53 PM 41.0 °F 37.1 °F 37.0 °F 86% 30.10 in 10.0 mi ENE 5.8 mph - N/A   Clear
10:53 PM 41.0 °F 36.4 °F 37.0 °F 86% 30.09 in 10.0 mi East 6.9 mph - N/A   Clear
11:53 PM 41.0 °F 36.4 °F 37.0 °F 86% 30.07 in 10.0 mi ENE 6.9 mph - N/A   Clear